Regional Weather Roundup
Issued by NWS

Home | Current Version | Previous Version | Text Only | Print | Product List | Glossary Off
Versions: 1 2 3 4 5 6 7 8 9 10 11 12 13 14 15 16 17 18 19 20 21 22 23 24 25 26 27 28 29 30 31 32 33 34 35 36 37 38 39 40 41 42 43 44 45 46 47 48 49 50

000
ASUS43 KDTX 191801
RWRMI
MICHIGAN HOURLY REGIONAL WEATHER ROUNDUP
NATIONAL WEATHER SERVICE DETROIT/PONTIAC MI
100 PM EST FRI DEC 19 2014

NOTE: "FAIR" INDICATES FEW OR NO CLOUDS BELOW 12,000 FEET WITH NO
SIGNIFICANT WEATHER AND/OR OBSTRUCTION TO VISIBILITY.

MIZ047>049-052>055-059>063-066>070-074>076-081>083-191900-
SOUTHEAST LOWER MICHIGAN

CITY           SKY/WX    TMP DP  RH WIND       PRES   REMARKS
ADRIAN         CLOUDY    29  24  82 CALM      30.26F
6HR MIN TEMP:  28; 6HR MAX TEMP:  29;

ALMA           SUNNY     28  20  70 E5        30.27F WCI  23
ANN ARBOR      CLOUDY    28  21  75 NW3       30.26S
BAD AXE        CLOUDY    29  22  76 NW7       30.25S WCI  22
6HR MIN TEMP:  19; 6HR MAX TEMP:  30;

CARO           MOSUNNY   30  22  72 NW5       30.25F WCI  25
DETROIT CITY   MOSUNNY   32  18  56 CALM      30.26F
6HR MIN TEMP:  29; 6HR MAX TEMP:  32;

DETROIT        CLOUDY    28  19  69 W5        30.27F WCI  23
6HR MIN TEMP:  27; 6HR MAX TEMP:  29;

FLINT          MOSUNNY   30  20  66 CALM      30.26F
6HR MIN TEMP:  26; 6HR MAX TEMP:  30;

GROSSE ILE     CLOUDY    28  19  69 CALM      30.26S
HILLSDALE      CLOUDY    29  25  84 CALM      30.23F
6HR MIN TEMP:  28; 6HR MAX TEMP:  29;

HOWELL         CLOUDY    28  21  75 W3        30.25S
6HR MIN TEMP:  24; 6HR MAX TEMP:  28;


CITY           SKY/WX    TMP DP  RH WIND       PRES   REMARKS
JACKSON        CLOUDY    27  22  81 CALM      30.24F
6HR MIN TEMP:  27; 6HR MAX TEMP:  28;

LAMBERTVILLE   CLOUDY    32  27  80 CALM      30.26F
LANSING        CLOUDY    26  20  77 SE3       30.27S
6HR MIN TEMP:  25; 6HR MAX TEMP:  26;

LAPEER         MOCLDY    30  20  68 CALM      30.24F
MASON          CLOUDY    26  21  81 CALM      30.26S
6HR MIN TEMP:  25; 6HR MAX TEMP:  26;

MONROE         CLOUDY    30  25  80 CALM      30.24F
MT. CLEMENS    MOSUNNY   32  20  63 N7        30.23S WCI  25
6HR MIN TEMP:  27; 6HR MAX TEMP:  32;

PONTIAC        PTSUNNY   28  19  69 W5        30.23F WCI  23
6HR MIN TEMP:  24; 6HR MAX TEMP:  29;

PORT HOPE        N/A     30  22  72 NW6       30.23F WCI  24
6HR MIN TEMP:  29; 6HR MAX TEMP:  31;

PORT HURON     CLOUDY    30  21  69 NW7       30.25R WCI  23
TRI CITIES     SUNNY     31  17  56 CALM      30.27F
6HR MIN TEMP:  21; 6HR MAX TEMP:  31;

TROY           MOSUNNY   32  19  57 NW5       30.27S WCI  28
SAGINAW HB     MOSUNNY   30  19  64 NW3       30.26F
$$
MIZ043>046-050>051-056>058-064>065-071>073-077>080-191900-
SOUTHWEST LOWER MICHIGAN

CITY           SKY/WX    TMP DP  RH WIND       PRES   REMARKS
BATTLE CREEK   CLOUDY    30  21  69 CALM      30.25F
6HR MIN TEMP:  29; 6HR MAX TEMP:  30;

BENTON HARBOR  CLOUDY    32  24  72 NW5       30.27F WCI  27
6HR MIN TEMP:  26; 6HR MAX TEMP:  32;

BIG RAPIDS     SUNNY     28  20  74 CALM      30.24F
6HR MIN TEMP:  20; 6HR MAX TEMP:  28;

COLDWATER      CLOUDY    28  27  93 MISG      30.25S FOG
6HR MIN TEMP:  27; 6HR MAX TEMP:  29;

FREMONT        FAIR      29  16  58 NE3       30.26F
6HR MIN TEMP:  16; 6HR MAX TEMP:  29;

HOLLAND        PTSUNNY   32  22  66 CALM      30.27F
6HR MIN TEMP:  18; 6HR MAX TEMP:  32;

GRAND RAPIDS   MOSUNNY   29  19  66 SW5       30.26F WCI  24
6HR MIN TEMP:  26; 6HR MAX TEMP:  30;

IONIA          FAIR      30  21  68 CALM      30.25F
KALAMAZOO      PTSUNNY   31  20  63 CALM      30.25F
6HR MIN TEMP:  24; 6HR MAX TEMP:  31;

LUDINGTON      PTSUNNY   31  25  78 E5        30.28S WCI  26
6HR MIN TEMP:  10; 6HR MAX TEMP:  31; 6HR PCP:  0.01;

MARSHALL       CLOUDY    28  22  78 CALM      30.24F
MOUNT PLEASANT SUNNY     28  18  67 CALM      30.26S
6HR MIN TEMP:  19; 6HR MAX TEMP:  28;

MUSKEGON       MOSUNNY   32  19  58 NW3       30.28S
6HR MIN TEMP:  19; 6HR MAX TEMP:  32;

SOUTH HAVEN    SUNNY     33  21  62 NW6       30.27S WCI  27
$$
MIZ016>042-191900-
NORTHERN LOWER MICHIGAN

CITY           SKY/WX    TMP DP  RH WIND       PRES   REMARKS
ALPENA         MOSUNNY   27  19  72 N6        30.25F WCI  20
6HR MIN TEMP:  13; 6HR MAX TEMP:  27;

BEAVER ISLAND  CLOUDY    25  24  94 CALM      30.27F
6HR MIN TEMP:  10; 6HR MAX TEMP:  25;

BELLAIRE       PTSUNNY   25  21  86 CALM      30.27F
6HR MIN TEMP:   8; 6HR MAX TEMP:  25;

CADILLAC       PTSUNNY   25  21  83 CALM      30.21F
CHARLEVOIX     SUNNY     27  22  82 N3        30.29F
6HR MIN TEMP:  12; 6HR MAX TEMP:  27;

FRANKFORT      CLOUDY    31  24  74 N7        30.26F WCI  24
GAYLORD        SUNNY     26  16  65 VRB3      30.21F
6HR MIN TEMP:  -1; 6HR MAX TEMP:  26;

GRAYLING       SUNNY     28  21  74 NW5       30.23F WCI  23
6HR MIN TEMP:  -1; 6HR MAX TEMP:  28;

HARBOR SPRINGS SUNNY     25  19  75 SW5       30.26F WCI  20
HOUGHTON LAKE  SUNNY     22  18  85 SW3       30.23F
6HR MIN TEMP:   9; 6HR MAX TEMP:  23;

MANISTEE       SUNNY     27  21  80 E5        30.27F WCI  21
OSCODA         PTSUNNY   28  21  75 NE5       30.25F WCI  22
PELLSTON       SUNNY     24  18  77 CALM      30.27F
6HR MIN TEMP:  -3; 6HR MAX TEMP:  25;

ROGERS CITY    MOSUNNY   26  21  82 N5        30.27S WCI  20
TRAVERSE CITY  PTSUNNY   29  21  72 CALM      30.26F
6HR MIN TEMP:  16; 6HR MAX TEMP:  30;

$$
MIZ007>008-015-191900-
EASTERN UPPER MICHIGAN

CITY           SKY/WX    TMP DP  RH WIND       PRES   REMARKS
KINROSS        SUNNY     25  16  68 N5        30.25F WCI  19
6HR MIN TEMP:   5; 6HR MAX TEMP:  28;

MACKINAC ISLAN SUNNY     26  15  62 N5        30.25F WCI  20
6HR MIN TEMP:  12; 6HR MAX TEMP:  26;

NEWBERRY       SUNNY     24  20  85 CALM      30.25F
6HR MIN TEMP:   3; 6HR MAX TEMP:  24;

S. S. MARIE    SUNNY     23  11  60 CALM      30.25F
6HR MIN TEMP:   5; 6HR MAX TEMP:  24;

MUNISING         N/A     33  23  66 NE6       30.26F WCI  28
6HR MIN TEMP:  23; 6HR MAX TEMP:  33;

$$
MIZ004>006-011>014-085-191900-
CENTRAL UPPER MICHIGAN

CITY           SKY/WX    TMP DP  RH WIND       PRES   REMARKS
MANISTIQUE     MOSUNNY   28  22  81 CALM      30.27F
6HR MIN TEMP:   6; 6HR MAX TEMP:  28;

ESCANABA       CLOUDY    27  21  80 CALM      30.28S
6HR MIN TEMP:   9; 6HR MAX TEMP:  27;

MENOMINEE      PTSUNNY   30  19  64 CALM      30.28S
6HR MIN TEMP:  12; 6HR MAX TEMP:  32;

SAWYER-GWINN   CLOUDY    28  21  74 CALM      30.24F
$$
MIZ001>003-009>011-084-191900-
WESTERN UPPER MICHIGAN

CITY           SKY/WX    TMP DP  RH WIND       PRES   REMARKS
IRON MOUNTAIN  CLOUDY    24  20  84 N3        30.24F
6HR MIN TEMP:   4; 6HR MAX TEMP:  24;

HOUGHTON       CLOUDY    25  18  74 SW6       30.24F WCI  18
6HR MIN TEMP:  19; 6HR MAX TEMP:  25;

COPPER HARBOR    N/A     31  22  69 CALM      30.27F
6HR MIN TEMP:  26; 6HR MAX TEMP:  31;

IRONWOOD       CLOUDY    21  19  93 S9        30.20F WCI  11
6HR MIN TEMP:   7; 6HR MAX TEMP:  21;

$$

ABBREVIATIONS USED IN REMARKS
   TC - TEMPERATURE IN CELSIUS
  WCI - WIND CHILL INDEX
   HX - HEAT INDEX
  VSB - VISIBILITY



USA.gov is the U.S. government's official web portal to all federal, state and local government web resources and services.